Location: Lane
(33.5226°N, 79.8788°W)
Time: 04:12:09
(UTC+00:00)

Explorer 7 - Pass Details

Date: 11 October 2022
Orbit: 481 x 665 km, 50.3° (Epoch: 30 November)

Event Time Altitude Azimuth Distance (km) Brightness Sun altitude
Rises 18:18:25 0° 318° (NW) 2,988 10.4 45.8°
Reaches altitude 10° 18:21:02 10° 329° (NNW) 2,058 9.6 45.6°
Maximum altitude 18:25:14 30° 31° (NNE) 1,128 8.3 45.1°
Drops below altitude 10° 18:29:17 10° 94° (E) 1,972 9.6 44.7°
Sets 18:31:44 0° 105° (ESE) 2,842 10.3 44.5°
